Overview Statistics Trail Chart Weather Telemetry Raw packets
 

This is the latest recevied weather packets stored in our database for station/object HG8LXL-2. If no packets are shown the sender has not sent any weather packets the latest 10 day(s).

<< 2 3 4 5 6 7 8 >>
Time Temp. Humidity Pressure Rain* Wind** Luminosity Snow
1788423352 30° C 23% 1015.9 hPa - - - -
1788423052 30° C 23% 1016 hPa - - - -
1788422752 29.44° C 24% 1016 hPa - - - -
1788422454 30° C 23% 1016 hPa - - - -
1788422152 30° C 23% 1016 hPa - - - -
1788421852 29.44° C 23% 1016 hPa - - - -
1788421554 29.44° C 25% 1016.1 hPa - - - -
1788421252 29.44° C 25% 1016.1 hPa - - - -
1788420952 28.89° C 28% 1016.1 hPa - - - -
1788420652 28.33° C 28% 1016.2 hPa - - - -
1788420352 28.33° C 29% 1016.1 hPa - - - -
1788420052 28.33° C 29% 1016.2 hPa - - - -
1788419752 27.22° C 31% 1016.2 hPa - - - -
1788419452 26.67° C 32% 1016.3 hPa - - - -
1788419152 26.11° C 33% 1016.4 hPa - - - -
1788418852 25.56° C 34% 1016.4 hPa - - - -
1788418552 25.56° C 35% 1016.3 hPa - - - -
1788418252 25° C 33% 1016.3 hPa - - - -
1788417952 25° C 35% 1016.3 hPa - - - -
1788417652 25.56° C 33% 1016.3 hPa - - - -
1788417352 25.56° C 33% 1016.4 hPa - - - -
1788417052 25° C 35% 1016.4 hPa - - - -
1788416752 25° C 35% 1016.4 hPa - - - -
1788416452 24.44° C 36% 1016.5 hPa - - - -
1788416152 23.89° C 38% 1016.6 hPa - - - -

* Rain since midnight (hover to see other rain measurements)
** Current wind speed in m/s (hover to see current wind gust speed)